QPF
0.00 0.00 0.00 0.00 0.00 0.00 0.00 0.00 0.00 0.00 0.00 0.00 0.00 0.00 0.00 0.00 0.00 0.00 0.00 0.00 0.00 0.00 0.00 0.00 0.00 0.00 0.00 0.00 0.00 0.00 0.00 0.00 0.00 0.00 0.00 0.01 0.00 0.00 0.02 0.05 0.05 0.03 0.03
0.00 0.00 0.00 0.00 0.00 0.00 0.00 0.00 0.00 0.00 0.00 0.00 0.00 0.00 0.00 0.00 0.00 0.00 0.00 0.00 0.00 0.00 0.00 0.00 0.00 0.00 0.00 0.00 0.00 0.00 0.00 0.00 0.00 0.00 0.00 0.00 0.01 0.01 0.01 0.07 0.06 0.01 0.00
0.00 0.00 0.00 0.00 0.00 0.00 0.00 0.00 0.00 0.00 0.00 0.00 0.00 0.00 0.00 0.00 0.00 0.00 0.00 0.00 0.00 0.00 0.00 0.00 0.00 0.00 0.00 0.00 0.00 0.00 0.00 0.00 0.01 0.00 0.00 0.00 0.01 0.02 0.04 0.02 0.02 0.02 0.02
0.00 0.00 0.00 0.00 0.00 0.00 0.00 0.00 0.00 0.00 0.00 0.00 0.00 0.00 0.00 0.00 0.00 0.00 0.00 0.00 0.00 0.00 0.00 0.00 0.00 0.00 0.00 0.00 0.00 0.00 0.00 0.00 0.00 0.00 0.00 0.00 0.00 0.00 0.03 0.04 0.03 0.00 0.00
0.00 0.00 0.00 0.00 0.00 0.00 0.00 0.00 0.00 0.00 0.00 0.00 0.00 0.00 0.00 0.00 0.00 0.00 0.00 0.00 0.00 0.00 0.00 0.00 0.00 0.00 0.00 0.00 0.00 0.00 0.00 0.00 0.00 0.00 0.00 0.00 0.00 0.01 0.04 0.04 0.02 0.00 0.00
0.00 0.00 0.00 0.00 0.00 0.00 0.00 0.00 0.00 0.00 0.00 0.00 0.00 0.00 0.00 0.00 0.00 0.00 0.00 0.00 0.00 0.00 0.00 0.00 0.00 0.00 0.00 0.00 0.00 0.00 0.00 0.00 0.00 0.00 0.01 0.02 0.04 0.04 0.02 0.01 0.00 0.00 0.00
0.00 0.00 0.00 0.00 0.00 0.00 0.00 0.00 0.00 0.00 0.00 0.00 0.00 0.00 0.00 0.00 0.00 0.00 0.00 0.00 0.00 0.00 0.00 0.00 0.00 0.00 0.00 0.00 0.00 0.00 0.00 0.00 0.00 0.00 0.01 0.02 0.02 0.04 0.04 0.03 0.02 0.00 0.00
0.00 0.00 0.00 0.00 0.00 0.00 0.00 0.00 0.00 0.00 0.00 0.00 0.00 0.00 0.00 0.00 0.00 0.00 0.00 0.00 0.00 0.00 0.00 0.00 0.00 0.00 0.00 0.00 0.00 0.00 0.00 0.00 0.00 0.00 0.00 0.00 0.01 0.03 0.02 0.02 0.01 0.01 0.02
0.00 0.00 0.00 0.00 0.00 0.00 0.00 0.00 0.00 0.00 0.00 0.00 0.00 0.00 0.00 0.00 0.00 0.00 0.00 0.00 0.00 0.00 0.00 0.00 0.00 0.00 0.00 0.00 0.00 0.00 0.00 0.00 0.00 0.00 0.00 0.00 0.00 0.01 0.00 0.00 0.01 0.01 0.05
0.00 0.00 0.00 0.00 0.00 0.00 0.00 0.00 0.00 0.00 0.00 0.00 0.00 0.00 0.00 0.00 0.00 0.00 0.00 0.00 0.00 0.00 0.00 0.00 0.00 0.00 0.00 0.00 0.00 0.00 0.00 0.00 0.01 0.02 0.04 0.05 0.02 0.02 0.03 0.04 0.07 0.05 0.10
0.00 0.00 0.00 0.00 0.00 0.00 0.00 0.00 0.00 0.00 0.00 0.00 0.00 0.00 0.00 0.00 0.00 0.00 0.00 0.00 0.00 0.00 0.00 0.00 0.00 0.00 0.00 0.00 0.00 0.00 0.00 0.00 0.01 0.03 0.04 0.07 0.10 0.17 0.28 0.23 0.10 0.04 0.05
0.00 0.00 0.00 0.00 0.00 0.00 0.00 0.00 0.00 0.00 0.00 0.00 0.00 0.00 0.00 0.00 0.00 0.00 0.00 0.00 0.00 0.00 0.00 0.00 0.00 0.00 0.00 0.00 0.00 0.00 0.00 0.00 0.00 0.00 0.00 0.01 0.02 0.05 0.10 0.12 0.15 0.07 0.03
0.00 0.00 0.00 0.00 0.00 0.00 0.00 0.00 0.00 0.00 0.00 0.00 0.00 0.00 0.00 0.00 0.00 0.00 0.00 0.00 0.00 0.00 0.00 0.00 0.00 0.00 0.00 0.00 0.00 0.00 0.00 0.00 0.00 0.00 0.00 0.00 0.00 0.01 0.04 0.08 0.06 0.01 0.00
0.00 0.00 0.00 0.00 0.00 0.00 0.00 0.00 0.00 0.00 0.00 0.00 0.00 0.00 0.00 0.00 0.00 0.00 0.00 0.00 0.00 0.00 0.00 0.00 0.00 0.00 0.00 0.00 0.00 0.00 0.00 0.00 0.00 0.00 0.00 0.00 0.00 0.00 0.00 0.00 0.00 0.00 0.00
0.00 0.00 0.00 0.00 0.00 0.00 0.00 0.00 0.00 0.00 0.00 0.00 0.00 0.00 0.00 0.00 0.00 0.00 0.00 0.00 0.00 0.00 0.00 0.00 0.00 0.00 0.00 0.00 0.00 0.00 0.00 0.00 0.00 0.00 0.01 0.00 0.00 0.00 0.00 0.00 0.00 0.00 0.00
0.00 0.00 0.00 0.00 0.00 0.00 0.00 0.00 0.00 0.00 0.00 0.00 0.00 0.00 0.00 0.00 0.00 0.00 0.00 0.00 0.00 0.00 0.00 0.00 0.00 0.00 0.00 0.00 0.00 0.00 0.00 0.00 0.00 0.00 0.00 0.00 0.00 0.00 0.00 0.00 0.00 0.00 0.00
0.00 0.00 0.00 0.00 0.00 0.00 0.00 0.00 0.00 0.00 0.00 0.00 0.00 0.00 0.00 0.00 0.00 0.00 0.00 0.00 0.00 0.00 0.00 0.00 0.00 0.00 0.00 0.00 0.00 0.00 0.00 0.00 0.00 0.02 0.02 0.02 0.01 0.01 0.00 0.00 0.00 0.00 0.00
0.00 0.00 0.00 0.00 0.00 0.00 0.00 0.00 0.00 0.00 0.00 0.00 0.00 0.00 0.00 0.00 0.00 0.00 0.00 0.00 0.00 0.00 0.00 0.00 0.00 0.00 0.00 0.00 0.00 0.00 0.00 0.00 0.00 0.01 0.06 0.02 0.01 0.00 0.00 0.00 0.00 0.00 0.00
0.00 0.00 0.00 0.00 0.00 0.00 0.00 0.00 0.00 0.00 0.00 0.00 0.00 0.00 0.00 0.00 0.00 0.00 0.00 0.00 0.00 0.00 0.00 0.00 0.00 0.01 0.00 0.00 0.00 0.00 0.00 0.00 0.00 0.00 0.03 0.01 0.01 0.00 0.00 0.00 0.00 0.00 0.00
0.00 0.00 0.00 0.00 0.00 0.00 0.00 0.00 0.00 0.00 0.00 0.00 0.00 0.00 0.00 0.00 0.00 0.00 0.00 0.00 0.00 0.00 0.00 0.00 0.00 0.01 0.00 0.00 0.00 0.00 0.00 0.00 0.00 0.00 0.00 0.00 0.01 0.00 0.00 0.00 0.00 0.00 0.00
0.00 0.00 0.00 0.00 0.00 0.00 0.00 0.00 0.00 0.00 0.00 0.00 0.00 0.00 0.00 0.00 0.00 0.00 0.00 0.00 0.00 0.00 0.00 0.00 0.00 0.00 0.00 0.00 0.00 0.00 0.00 0.00 0.00 0.00 0.00 0.00 0.00 0.00 0.00 0.00 0.00 0.00 0.00
0.00 0.00 0.00 0.00 0.00 0.00 0.00 0.00 0.00 0.00 0.00 0.00 0.00 0.00 0.00 0.00 0.00 0.00 0.00 0.00 0.00 0.00 0.00 0.00 0.00 0.00 0.00 0.00 0.00 0.00 0.00 0.00 0.00 0.00 0.00 0.00 0.00 0.00 0.00 0.00 0.00 0.00 0.00
0.00 0.00 0.00 0.00 0.00 0.00 0.00 0.00 0.00 0.00 0.00 0.00 0.00 0.00 0.00 0.00 0.00 0.00 0.00 0.00 0.00 0.00 0.00 0.00 0.00 0.00 0.00 0.00 0.00 0.00 0.00 0.00 0.00 0.00 0.00 0.00 0.00 0.00 0.00 0.00 0.00 0.00 0.00
0.00 0.00 0.00 0.00 0.00 0.00 0.00 0.00 0.00 0.00 0.00 0.00 0.00 0.00 0.00 0.00 0.00 0.00 0.00 0.00 0.00 0.00 0.00 0.00 0.00 0.00 0.00 0.00 0.00 0.00 0.00 0.00 0.00 0.00 0.00 0.00 0.00 0.00 0.00 0.00 0.00 0.00 0.00
0.00 0.00 0.00 0.00 0.00 0.00 0.00 0.00 0.00 0.00 0.00 0.00 0.00 0.00 0.00 0.00 0.00 0.00 0.00 0.00 0.00 0.00 0.00 0.00 0.00 0.00 0.00 0.00 0.00 0.00 0.00 0.00 0.00 0.00 0.00 0.00 0.00 0.00 0.00 0.00 0.00 0.00 0.00
0.00 0.00 0.00 0.00 0.00 0.00 0.00 0.00 0.00 0.00 0.00 0.00 0.00 0.00 0.00 0.00 0.00 0.01 0.00 0.00 0.00 0.00 0.00 0.00 0.00 0.00 0.00 0.00 0.00 0.00 0.00 0.00 0.00 0.00 0.00 0.00 0.00 0.00 0.00 0.00 0.00 0.00 0.00
MSLP
1019.79 1019.96 1020.10 1020.23 1020.38 1020.47 1020.80 1020.88 1020.87 1020.89 1020.80 1020.72 1020.67 1020.81 1020.87 1020.91 1020.84 1020.87 1020.89 1020.78 1020.74 1020.78 1020.77 1020.68 1020.58 1020.45 1020.22 1020.05 1019.83 1019.62 1019.41 1019.26 1019.19 1019.15 1019.11 1019.00 1018.95 1018.92 1018.85 1018.74 1018.79 1018.94 1018.99
1019.51 1019.72 1020.03 1020.42 1020.58 1020.60 1020.70 1020.71 1020.70 1020.73 1020.76 1020.77 1020.64 1020.67 1020.64 1020.66 1020.68 1020.76 1020.89 1020.84 1020.73 1020.81 1020.83 1020.79 1020.66 1020.57 1020.35 1020.09 1019.85 1019.65 1019.43 1019.31 1019.08 1018.87 1018.84 1018.82 1018.76 1018.60 1018.54 1018.58 1018.59 1018.69 1018.70
1019.67 1019.98 1020.28 1020.51 1020.57 1020.50 1020.57 1020.70 1020.76 1020.81 1020.91 1020.89 1020.92 1020.77 1020.78 1020.77 1020.87 1020.80 1020.76 1020.87 1020.91 1020.90 1020.98 1020.88 1020.80 1020.65 1020.43 1020.10 1019.73 1019.49 1019.36 1019.15 1018.95 1018.82 1018.64 1018.58 1018.57 1018.53 1018.36 1018.33 1018.37 1018.52 1018.62
1019.77 1020.07 1020.29 1020.52 1020.55 1020.65 1020.85 1021.01 1021.09 1021.17 1021.27 1021.29 1021.18 1021.09 1021.01 1020.89 1020.81 1020.82 1020.82 1020.83 1020.93 1020.94 1020.94 1020.91 1020.85 1020.67 1020.56 1020.39 1020.06 1019.73 1019.43 1019.20 1018.98 1018.78 1018.55 1018.34 1018.36 1018.35 1018.20 1018.08 1018.16 1018.40 1018.23
1019.72 1020.02 1020.35 1020.58 1020.59 1020.80 1020.95 1021.05 1021.24 1021.33 1021.47 1021.42 1021.36 1021.30 1021.17 1021.06 1020.88 1020.77 1020.91 1020.85 1020.88 1020.87 1020.99 1021.00 1020.91 1020.85 1020.69 1020.40 1020.19 1019.95 1019.61 1019.21 1018.95 1018.67 1018.40 1018.29 1018.32 1018.31 1018.33 1018.28 1018.08 1018.25 1018.43
1019.81 1020.17 1020.46 1020.66 1020.73 1021.01 1021.21 1021.30 1021.42 1021.52 1021.56 1021.63 1021.61 1021.49 1021.28 1021.14 1021.09 1020.98 1020.95 1020.88 1020.99 1021.06 1021.06 1021.06 1021.06 1020.78 1020.54 1020.20 1020.19 1020.01 1019.67 1019.14 1018.70 1018.51 1018.24 1018.19 1018.14 1018.10 1018.05 1018.17 1018.30 1018.37 1018.34
1019.89 1020.22 1020.51 1020.65 1020.80 1021.15 1021.31 1021.45 1021.59 1021.79 1021.94 1021.93 1022.09 1021.76 1021.23 1020.91 1021.01 1021.02 1021.03 1021.00 1021.09 1021.14 1021.07 1021.05 1021.04 1020.92 1020.74 1020.48 1020.31 1020.15 1019.87 1019.36 1018.84 1018.46 1018.20 1018.05 1017.99 1018.01 1018.12 1017.97 1017.90 1017.89 1017.94
1019.95 1020.28 1020.57 1020.85 1020.98 1021.34 1021.53 1021.67 1021.83 1022.21 1022.20 1022.05 1022.44 1022.71 1022.38 1021.95 1021.68 1021.48 1021.43 1021.48 1021.50 1021.36 1021.24 1021.19 1021.08 1020.96 1020.68 1020.74 1020.58 1020.48 1020.06 1019.46 1018.95 1018.49 1018.18 1018.04 1017.91 1017.70 1017.66 1017.59 1017.46 1017.51 1017.57
1019.75 1019.98 1020.32 1020.68 1021.00 1021.27 1021.53 1021.65 1021.79 1022.06 1022.43 1022.37 1022.33 1022.77 1022.89 1022.82 1022.32 1021.67 1021.61 1021.57 1021.58 1021.57 1021.53 1021.29 1021.13 1020.99 1020.85 1020.90 1020.72 1020.55 1020.18 1019.61 1019.06 1018.53 1018.19 1018.01 1017.74 1017.44 1017.36 1017.26 1017.13 1017.33 1017.34
1019.62 1019.79 1020.04 1020.33 1020.63 1020.83 1021.13 1021.20 1021.34 1021.71 1022.05 1022.45 1022.35 1022.12 1022.28 1022.60 1022.81 1022.77 1022.12 1021.80 1021.59 1021.50 1021.34 1021.20 1021.09 1020.89 1020.90 1021.11 1020.97 1020.91 1020.61 1019.99 1019.32 1018.86 1018.54 1018.13 1017.92 1017.49 1017.06 1017.09 1017.10 1017.06 1017.69
1019.39 1019.56 1019.72 1019.98 1020.23 1020.54 1020.84 1020.98 1021.09 1021.38 1021.63 1021.97 1022.18 1022.26 1022.28 1022.34 1022.68 1022.89 1022.68 1022.17 1021.88 1021.55 1021.43 1021.23 1021.13 1021.09 1021.00 1020.91 1021.07 1020.89 1020.71 1020.21 1019.57 1019.01 1018.73 1018.37 1018.03 1018.08 1017.78 1017.36 1017.01 1017.13 1018.15
1019.31 1019.29 1019.37 1019.56 1019.76 1020.09 1020.49 1020.69 1021.01 1021.29 1021.57 1021.75 1021.85 1022.06 1022.23 1022.29 1022.52 1022.91 1023.00 1022.51 1022.18 1021.60 1021.32 1021.14 1020.95 1020.99 1020.94 1020.97 1021.02 1021.07 1020.97 1020.51 1019.82 1019.29 1018.92 1018.73 1018.67 1018.66 1018.49 1018.54 1018.37 1016.93 1018.20
1019.04 1018.92 1019.06 1019.43 1019.63 1019.65 1019.82 1020.19 1020.69 1020.96 1021.24 1021.54 1021.67 1021.75 1021.79 1021.92 1022.01 1022.25 1022.51 1022.43 1022.32 1021.92 1021.63 1021.31 1021.02 1020.97 1020.88 1020.98 1021.15 1021.09 1020.95 1020.59 1020.12 1019.58 1019.30 1019.33 1019.31 1019.17 1019.24 1019.48 1019.26 1019.05 1019.09
1018.25 1018.48 1018.77 1019.02 1019.24 1019.39 1019.58 1019.81 1020.33 1020.60 1020.64 1020.85 1021.20 1021.48 1021.41 1021.32 1021.66 1021.74 1021.95 1022.27 1022.29 1022.00 1021.93 1021.55 1021.19 1021.09 1020.92 1021.10 1021.23 1020.98 1021.05 1020.58 1020.09 1019.80 1019.74 1019.95 1020.07 1019.92 1019.92 1019.89 1019.90 1019.78 1020.08
1017.45 1017.72 1018.25 1018.79 1018.98 1019.19 1019.29 1019.43 1019.54 1020.01 1020.54 1020.45 1020.59 1020.89 1021.02 1020.96 1021.22 1021.35 1021.47 1021.76 1022.02 1022.19 1021.86 1021.37 1021.50 1021.38 1021.30 1021.33 1021.27 1021.33 1021.24 1020.78 1020.17 1019.96 1020.11 1020.40 1020.53 1020.59 1020.71 1020.73 1020.84 1020.83 1020.78
1017.22 1017.44 1017.81 1018.17 1018.45 1018.61 1018.76 1019.16 1019.54 1019.62 1019.82 1019.77 1020.20 1020.50 1020.60 1020.78 1020.94 1021.05 1021.25 1021.36 1021.59 1021.90 1021.98 1021.71 1021.72 1021.45 1021.38 1021.34 1021.37 1021.36 1021.34 1020.97 1020.56 1020.46 1020.39 1020.80 1020.97 1021.01 1021.12 1021.19 1021.49 1021.57 1021.72
1016.45 1016.74 1017.03 1017.41 1017.87 1018.25 1018.47 1018.63 1019.04 1019.13 1019.65 1019.69 1019.98 1019.99 1020.29 1020.30 1020.51 1020.66 1020.62 1020.83 1021.17 1021.49 1021.89 1021.77 1021.49 1021.45 1021.61 1021.58 1021.84 1021.66 1021.49 1021.21 1020.84 1020.84 1020.79 1021.00 1021.12 1021.41 1021.61 1021.93 1022.25 1022.41 1022.37
1016.01 1016.22 1016.47 1016.85 1017.08 1017.40 1017.82 1018.17 1018.60 1018.33 1019.10 1019.35 1019.49 1019.90 1019.93 1019.93 1020.19 1020.31 1020.53 1020.51 1020.69 1020.94 1021.26 1021.40 1021.34 1021.27 1021.15 1021.42 1021.68 1021.85 1021.73 1021.58 1021.17 1020.82 1021.04 1021.07 1021.28 1021.74 1022.05 1022.46 1022.85 1022.96 1022.94
1015.42 1015.80 1016.03 1016.38 1016.60 1016.81 1017.07 1017.31 1017.62 1017.82 1018.46 1018.85 1019.25 1019.43 1019.59 1019.69 1019.91 1020.12 1020.19 1020.25 1020.26 1020.47 1020.77 1020.96 1020.98 1020.95 1021.08 1021.13 1021.47 1021.91 1022.06 1022.02 1021.52 1021.35 1021.14 1020.84 1021.39 1021.94 1022.51 1022.89 1023.17 1023.45 1023.69
1014.97 1015.08 1015.21 1015.56 1015.98 1016.16 1016.23 1016.71 1016.75 1017.42 1018.02 1018.63 1018.89 1018.93 1019.26 1019.35 1019.66 1019.83 1020.10 1020.15 1020.29 1020.37 1020.53 1020.57 1020.62 1020.66 1020.91 1020.89 1021.04 1021.47 1022.02 1022.14 1022.19 1022.09 1021.63 1021.45 1021.73 1022.25 1022.76 1023.27 1023.62 1023.97 1024.25
1014.70 1014.69 1014.90 1015.14 1015.58 1016.14 1016.61 1016.97 1017.09 1017.16 1017.53 1018.60 1018.85 1019.07 1019.21 1019.46 1019.57 1019.81 1019.96 1019.95 1020.15 1020.30 1020.31 1020.17 1020.14 1020.29 1020.52 1020.78 1020.84 1021.30 1021.85 1022.49 1022.67 1022.65 1022.58 1022.91 1022.82 1023.19 1023.57 1023.87 1024.20 1024.51 1024.76
1014.48 1014.39 1014.61 1015.02 1015.56 1015.85 1016.08 1016.54 1016.96 1017.03 1017.19 1017.99 1018.50 1018.97 1019.21 1019.34 1019.42 1019.71 1019.69 1019.77 1019.84 1019.83 1019.62 1019.62 1019.79 1019.97 1019.93 1020.19 1020.59 1021.02 1021.84 1022.50 1022.97 1022.88 1022.85 1023.54 1023.55 1023.82 1024.18 1024.42 1024.61 1024.95 1025.20
1014.39 1014.47 1014.53 1014.61 1014.84 1015.34 1015.60 1016.05 1016.61 1017.00 1017.28 1017.90 1018.57 1018.47 1018.80 1018.97 1019.38 1019.59 1019.69 1019.56 1019.47 1019.57 1019.57 1019.56 1019.33 1019.56 1019.65 1019.64 1020.10 1020.77 1021.38 1022.04 1022.53 1023.03 1023.03 1024.04 1024.12 1024.39 1024.60 1024.74 1024.97 1025.27 1025.58
1013.88 1013.97 1014.10 1014.54 1014.61 1015.02 1015.33 1015.78 1016.37 1016.93 1017.33 1017.66 1018.01 1018.51 1018.54 1019.04 1019.21 1019.31 1019.51 1019.52 1019.61 1019.66 1019.60 1019.65 1019.23 1019.20 1019.37 1019.33 1019.57 1020.04 1020.94 1022.00 1022.65 1023.12 1023.11 1024.12 1024.60 1024.89 1025.07 1025.22 1025.21 1025.51 1025.88
1013.54 1013.26 1013.33 1013.83 1014.20 1014.67 1015.15 1015.82 1016.21 1016.65 1017.17 1017.76 1017.84 1017.97 1018.29 1018.94 1019.06 1019.05 1019.44 1019.78 1019.74 1019.78 1019.46 1019.51 1019.26 1019.15 1019.04 1019.09 1019.55 1020.18 1021.13 1021.84 1022.86 1023.41 1023.68 1023.86 1024.78 1025.30 1025.72 1025.75 1025.57 1025.75 1026.08
1012.97 1012.76 1012.49 1013.25 1013.56 1014.28 1014.63 1014.99 1015.77 1016.49 1017.20 1017.60 1017.61 1017.84 1018.05 1018.48 1018.97 1018.93 1019.41 1019.72 1020.05 1020.16 1020.01 1020.30 1020.11 1020.03 1019.88 1019.79 1019.81 1019.79 1020.55 1021.41 1022.52 1023.52 1023.74 1024.12 1024.84 1025.21 1026.06 1026.17 1026.31 1026.41 1026.60
Thickness
5683 5681 5678 5676 5674 5672 5669 5668 5666 5665 5664 5662 5661 5659 5656 5654 5654 5653 5650 5648 5647 5645 5643 5642 5641 5640 5640 5640 5640 5639 5640 5639 5639 5638 5637 5637 5635 5634 5634 5634 5632 5631 5630
5681 5678 5676 5673 5672 5670 5668 5667 5665 5664 5662 5660 5658 5655 5653 5651 5649 5647 5644 5643 5641 5639 5637 5635 5635 5634 5634 5634 5634 5633 5633 5632 5632 5632 5631 5630 5629 5629 5628 5626 5625 5623 5622
5677 5675 5672 5670 5669 5667 5665 5663 5661 5659 5656 5653 5652 5650 5647 5645 5642 5640 5638 5636 5633 5631 5628 5627 5626 5626 5626 5626 5627 5627 5626 5626 5626 5625 5624 5622 5620 5619 5619 5618 5616 5613 5612
5672 5669 5667 5664 5663 5661 5658 5655 5653 5651 5647 5645 5644 5642 5640 5637 5636 5633 5631 5629 5627 5623 5621 5619 5617 5617 5616 5615 5615 5615 5616 5615 5615 5614 5614 5613 5611 5610 5610 5608 5605 5602 5604
5665 5663 5660 5657 5655 5653 5651 5649 5645 5643 5639 5637 5635 5633 5632 5630 5628 5625 5621 5619 5617 5614 5611 5609 5608 5606 5604 5604 5603 5603 5603 5603 5603 5603 5604 5603 5600 5598 5596 5594 5594 5590 5586
5659 5655 5652 5649 5647 5644 5641 5639 5636 5633 5630 5627 5626 5623 5621 5620 5616 5614 5611 5610 5607 5604 5601 5599 5597 5598 5597 5596 5593 5590 5591 5592 5593 5592 5592 5590 5588 5586 5584 5581 5578 5575 5573
5651 5648 5644 5642 5639 5635 5632 5630 5626 5623 5618 5615 5612 5612 5613 5612 5608 5606 5603 5599 5595 5593 5591 5589 5586 5585 5583 5582 5580 5578 5576 5577 5578 5578 5577 5576 5575 5571 5568 5567 5565 5564 5562
5643 5640 5636 5632 5629 5625 5621 5618 5614 5609 5606 5605 5598 5592 5591 5593 5591 5591 5588 5585 5582 5579 5577 5575 5573 5571 5570 5567 5564 5561 5562 5563 5564 5564 5563 5560 5559 5559 5557 5555 5553 5550 5549
5636 5632 5628 5623 5618 5614 5609 5606 5603 5599 5593 5590 5587 5579 5575 5574 5574 5580 5577 5574 5570 5567 5564 5562 5559 5557 5556 5553 5551 5549 5547 5548 5548 5549 5549 5546 5544 5544 5541 5539 5538 5535 5536
5628 5625 5621 5616 5612 5608 5603 5600 5596 5591 5586 5578 5576 5575 5569 5563 5556 5555 5560 5560 5559 5556 5555 5551 5547 5545 5542 5537 5533 5529 5527 5529 5530 5529 5528 5528 5526 5526 5527 5525 5524 5525 5519
5622 5616 5613 5609 5604 5599 5595 5592 5588 5583 5578 5572 5565 5560 5557 5554 5546 5542 5541 5541 5541 5539 5538 5535 5531 5527 5525 5522 5517 5515 5512 5510 5510 5510 5509 5509 5510 5509 5511 5512 5514 5512 5504
5612 5608 5605 5601 5597 5591 5586 5582 5577 5572 5566 5561 5556 5550 5545 5542 5536 5527 5522 5524 5523 5526 5524 5521 5517 5514 5511 5505 5501 5496 5492 5491 5490 5490 5489 5490 5491 5492 5496 5500 5498 5494 5491
5601 5600 5596 5590 5586 5582 5578 5572 5566 5561 5555 5549 5544 5539 5534 5529 5524 5518 5512 5509 5507 5507 5507 5506 5502 5498 5495 5490 5484 5480 5476 5474 5472 5472 5473 5474 5474 5477 5477 5477 5474 5477 5476
5595 5590 5585 5580 5575 5571 5566 5561 5555 5549 5546 5541 5534 5527 5523 5517 5510 5505 5501 5495 5492 5492 5488 5488 5486 5481 5478 5472 5466 5463 5459 5458 5459 5458 5458 5457 5456 5458 5459 5461 5459 5460 5459
5589 5584 5576 5568 5563 5558 5553 5549 5544 5538 5530 5527 5522 5515 5508 5503 5498 5494 5490 5484 5478 5475 5473 5474 5470 5463 5459 5454 5450 5444 5442 5443 5445 5446 5446 5444 5443 5443 5443 5444 5443 5443 5444
5576 5570 5564 5558 5552 5547 5542 5535 5528 5525 5520 5517 5508 5501 5495 5490 5485 5481 5475 5470 5465 5460 5456 5453 5450 5447 5441 5436 5433 5430 5428 5429 5432 5434 5435 5431 5429 5430 5431 5432 5431 5431 5429
5569 5563 5556 5548 5541 5534 5528 5524 5516 5512 5506 5500 5492 5488 5482 5479 5474 5469 5466 5459 5452 5446 5440 5437 5435 5431 5424 5419 5415 5415 5415 5417 5422 5421 5422 5420 5421 5420 5420 5418 5417 5416 5418
5554 5550 5543 5536 5530 5523 5517 5511 5504 5504 5494 5486 5479 5472 5469 5467 5461 5456 5452 5449 5441 5434 5431 5425 5421 5417 5415 5409 5405 5403 5404 5407 5411 5413 5411 5412 5413 5411 5409 5406 5403 5403 5405
5541 5534 5528 5522 5517 5511 5506 5501 5496 5490 5480 5473 5466 5461 5456 5454 5448 5442 5439 5436 5431 5425 5419 5415 5410 5406 5403 5401 5397 5393 5393 5396 5401 5402 5404 5406 5404 5402 5397 5395 5393 5391 5391
5526 5522 5517 5511 5504 5500 5497 5490 5486 5477 5468 5458 5453 5450 5444 5440 5434 5429 5424 5421 5416 5412 5406 5402 5400 5398 5394 5393 5391 5389 5386 5386 5388 5391 5395 5395 5395 5392 5389 5385 5383 5380 5378
5510 5507 5502 5497 5491 5484 5477 5471 5466 5463 5456 5442 5438 5432 5428 5424 5420 5415 5411 5408 5403 5397 5395 5394 5393 5391 5387 5385 5385 5383 5379 5376 5377 5381 5383 5381 5382 5380 5377 5375 5372 5370 5368
5493 5491 5486 5480 5473 5469 5466 5456 5448 5446 5441 5431 5423 5418 5413 5409 5406 5402 5400 5396 5391 5389 5388 5388 5386 5384 5383 5382 5379 5378 5372 5370 5370 5372 5375 5371 5371 5371 5368 5365 5364 5361 5360
5472 5468 5465 5463 5460 5454 5450 5444 5436 5428 5424 5416 5408 5406 5402 5398 5391 5387 5385 5385 5384 5380 5378 5376 5380 5377 5376 5376 5375 5372 5371 5369 5367 5365 5367 5361 5362 5362 5359 5357 5356 5354 5352
5455 5450 5446 5440 5440 5437 5433 5427 5420 5413 5407 5402 5396 5391 5389 5382 5377 5376 5373 5372 5370 5367 5366 5365 5369 5368 5368 5368 5370 5371 5367 5361 5359 5359 5361 5357 5354 5353 5351 5350 5350 5348 5346
5434 5433 5432 5428 5425 5421 5417 5411 5405 5399 5393 5387 5384 5381 5376 5367 5368 5368 5363 5359 5359 5357 5357 5355 5358 5358 5359 5362 5362 5362 5359 5357 5352 5352 5353 5354 5348 5345 5342 5342 5343 5341 5339
5416 5415 5415 5410 5410 5407 5403 5400 5393 5386 5379 5374 5373 5369 5368 5364 5359 5360 5354 5350 5347 5345 5345 5342 5345 5345 5348 5351 5354 5358 5356 5355 5349 5347 5347 5347 5343 5342 5336 5335 5334 5334 5332